Disclaimer

Please do not use the information listed here in-flight or in-navigation, as they are not provided to us by the airports but are provided by volunteers, so they might be outdated.

Search


Regions


Airport information page

Radio informations:
Tower (TWR) - 118.1 MHz
Ground (GND) - 121.9 MHz
RDO - 124.0 MHz
CLNC - 125.1 MHz
Approach (APP) - 124.7 MHz
CON - 127.5 MHz

Airport informations:
Latitude: 10° 18' 27.15" N
Longitude: 123° 58' 45.98" E
Elevation: 31 feet - 9 meters
Operating hours: N/A
Operating agency: Military-civil joint use airport
Timezone: UTC+8
Fuel: Jet B, Wide cut turbine fuel, Without icing inhibitor.

Jet A1, without icing nhibitor.

100/130 octane gasoline, leaded, MIL-L-5572F (GREEN)

Runway information:
04/22 - 10827 x 148 feet< - >3300 x 45 meters

Recent METARs:
RPVM 170800Z 04021KT 9999 FEW020 SCT100 29/22 Q19010 RMK A2983
RPVM 170900Z 03015KT 9999 FEW020 BKN100 28/22 Q1011 RMK A2985
RPVM 170900Z 03015KT 9999 FEW020 BKN100 28/22 Q1011 RMK A2985

Airport on the map: